Time,TemperatureF,DewpointF,PressureIn,WindDirection,WindDirectionDegrees,WindSpeedMPH,WindSpeedGustMPH,Humidity,HourlyPrecipIn,Conditions,Clouds,dailyrainin,SoftwareType,DateUTC
2014-07-12 00:00:00,91.7,43.6,29.75,NNW,338,0.0,0.0,19,0.00,,,0.00,WeatherCatV1.24B11,2014-07-12 07:00:00,
2014-07-12 00:05:00,91.3,43.2,29.75,NNW,338,0.0,0.0,19,0.00,,,0.00,WeatherCatV1.24B11,2014-07-12 07:05:00,
2014-07-12 00:10:00,91.0,43.0,29.75,NNW,338,0.0,0.0,19,0.00,,,0.00,WeatherCatV1.24B11,2014-07-12 07:10:00,
2014-07-12 00:15:00,90.7,42.7,29.75,NNW,338,0.0,0.0,19,0.00,,,0.00,WeatherCatV1.24B11,2014-07-12 07:15:00,
2014-07-12 00:20:00,90.6,42.7,29.75,NNE,22,0.0,1.0,19,0.00,,,0.00,WeatherCatV1.24B11,2014-07-12 07:20:00,
2014-07-12 00:25:00,90.6,42.7,29.76,NNE,22,0.0,1.0,19,0.00,,,0.00,WeatherCatV1.24B11,2014-07-12 07:25:00,
2014-07-12 00:30:00,90.4,42.5,29.75,NNE,22,0.0,0.0,19,0.00,,,0.00,WeatherCatV1.24B11,2014-07-12 07:30:00,
2014-07-12 00:35:00,90.3,42.4,29.76,North,0,0.0,1.0,19,0.00,,,0.00,WeatherCatV1.24B11,2014-07-12 07:35:00,
2014-07-12 00:40:00,90.6,42.7,29.76,NW,315,0.0,1.0,19,0.00,,,0.00,WeatherCatV1.24B11,2014-07-12 07:40:00,
2014-07-12 00:45:00,90.6,42.7,29.76,NW,315,0.0,0.0,19,0.00,,,0.00,WeatherCatV1.24B11,2014-07-12 07:45:00,
2014-07-12 00:50:00,90.2,43.7,29.76,NW,315,0.0,0.0,20,0.00,,,0.00,WeatherCatV1.24B11,2014-07-12 07:50:00,
2014-07-12 00:55:00,89.9,43.4,29.76,NW,315,0.0,0.0,20,0.00,,,0.00,WeatherCatV1.24B11,2014-07-12 07:55:00,
2014-07-12 01:00:00,89.4,41.7,29.75,NW,315,0.0,0.0,19,0.00,,,0.00,WeatherCatV1.24B11,2014-07-12 08:00:00,
2014-07-12 01:05:00,89.1,42.8,29.75,NW,315,0.0,0.0,20,0.00,,,0.00,WeatherCatV1.24B11,2014-07-12 08:05:00,
2014-07-12 01:10:00,88.9,43.9,29.75,NW,315,0.0,0.0,21,0.00,,,0.00,WeatherCatV1.24B11,2014-07-12 08:10:00,
2014-07-12 01:15:00,88.6,43.6,29.75,NW,315,0.0,0.0,21,0.00,,,0.00,WeatherCatV1.24B11,2014-07-12 08:15:00,
2014-07-12 01:20:00,88.3,43.4,29.75,NW,315,0.0,0.0,21,0.00,,,0.00,WeatherCatV1.24B11,2014-07-12 08:20:00,
2014-07-12 01:25:00,88.3,42.1,29.75,NW,315,0.0,0.0,20,0.00,,,0.00,WeatherCatV1.24B11,2014-07-12 08:25:00,
2014-07-12 01:30:00,88.3,42.1,29.75,NW,315,0.0,0.0,20,0.00,,,0.00,WeatherCatV1.24B11,2014-07-12 08:30:00,
2014-07-12 01:35:00,88.4,43.5,29.75,NW,315,0.0,0.0,21,0.00,,,0.00,WeatherCatV1.24B11,2014-07-12 08:35:00,
2014-07-12 01:40:00,88.5,42.3,29.75,NW,315,0.0,0.0,20,0.00,,,0.00,WeatherCatV1.24B11,2014-07-12 08:40:00,
2014-07-12 01:45:00,88.7,42.4,29.75,WNW,292,0.0,1.0,20,0.00,,,0.00,WeatherCatV1.24B11,2014-07-12 08:45:00,
2014-07-12 01:50:00,88.7,42.4,29.75,WNW,292,0.0,0.0,20,0.00,,,0.00,WeatherCatV1.24B11,2014-07-12 08:50:00,
2014-07-12 01:55:00,88.6,42.3,29.76,SE,135,0.0,1.0,20,0.00,,,0.00,WeatherCatV1.24B11,2014-07-12 08:55:00,
2014-07-12 02:00:00,88.8,42.5,29.76,SE,135,0.0,1.0,20,0.00,,,0.00,WeatherCatV1.24B11,2014-07-12 09:00:00,
2014-07-12 02:05:00,88.6,43.6,29.76,East,90,1.0,7.0,21,0.00,,,0.00,WeatherCatV1.24B11,2014-07-12 09:05:00,
2014-07-12 02:10:00,88.8,42.5,29.77,East,90,2.0,6.0,20,0.00,,,0.00,WeatherCatV1.24B11,2014-07-12 09:10:00,
2014-07-12 02:15:00,89.2,42.8,29.76,ESE,112,2.0,3.0,20,0.00,,,0.00,WeatherCatV1.24B11,2014-07-12 09:15:00,
2014-07-12 02:20:00,89.6,41.8,29.77,East,90,1.0,4.0,19,0.00,,,0.00,WeatherCatV1.24B11,2014-07-12 09:20:00,
2014-07-12 02:25:00,89.6,41.8,29.77,SW,225,0.0,3.0,19,0.00,,,0.00,WeatherCatV1.24B11,2014-07-12 09:25:00,
2014-07-12 02:30:00,89.4,41.7,29.77,SW,225,1.0,2.0,19,0.00,,,0.00,WeatherCatV1.24B11,2014-07-12 09:30:00,
2014-07-12 02:35:00,89.5,41.8,29.77,ESE,112,1.0,4.0,19,0.00,,,0.00,WeatherCatV1.24B11,2014-07-12 09:35:00,
2014-07-12 02:40:00,89.6,41.8,29.77,SW,225,0.0,2.0,19,0.00,,,0.00,WeatherCatV1.24B11,2014-07-12 09:40:00,
2014-07-12 02:45:00,89.5,43.1,29.77,ESE,112,1.0,3.0,20,0.00,,,0.00,WeatherCatV1.24B11,2014-07-12 09:45:00,
2014-07-12 02:50:00,89.3,47.7,29.77,East,90,1.0,3.0,24,0.00,,,0.00,WeatherCatV1.24B11,2014-07-12 09:50:00,
2014-07-12 02:55:00,88.9,51.5,29.77,WSW,248,0.0,2.0,28,0.00,,,0.00,WeatherCatV1.24B11,2014-07-12 09:55:00,
2014-07-12 03:00:00,88.5,54.0,29.77,ESE,112,1.0,4.0,31,0.00,,,0.00,WeatherCatV1.24B11,2014-07-12 10:00:00,
2014-07-12 03:05:00,88.2,57.8,29.77,SE,135,1.0,3.0,36,0.00,,,0.00,WeatherCatV1.24B11,2014-07-12 10:05:00,
2014-07-12 03:10:00,87.8,59.0,29.77,East,90,1.0,3.0,38,0.00,,,0.00,WeatherCatV1.24B11,2014-07-12 10:10:00,
2014-07-12 03:15:00,87.5,59.5,29.77,ESE,112,1.0,3.0,39,0.00,,,0.00,WeatherCatV1.24B11,2014-07-12 10:15:00,
2014-07-12 03:20:00,87.5,59.5,29.77,East,90,1.0,3.0,39,0.00,,,0.00,WeatherCatV1.24B11,2014-07-12 10:20:00,
2014-07-12 03:25:00,87.4,60.1,29.77,ESE,112,1.0,2.0,40,0.00,,,0.00,WeatherCatV1.24B11,2014-07-12 10:25:00,
2014-07-12 03:30:00,87.2,59.9,29.77,East,90,1.0,2.0,40,0.00,,,0.00,WeatherCatV1.24B11,2014-07-12 10:30:00,
2014-07-12 03:35:00,87.2,59.9,29.77,East,90,1.0,4.0,40,0.00,,,0.00,WeatherCatV1.24B11,2014-07-12 10:35:00,
2014-07-12 03:40:00,87.2,59.9,29.77,SSW,202,1.0,2.0,40,0.00,,,0.00,WeatherCatV1.24B11,2014-07-12 10:40:00,
2014-07-12 03:45:00,87.1,59.8,29.77,ENE,68,1.0,3.0,40,0.00,,,0.00,WeatherCatV1.24B11,2014-07-12 10:45:00,
2014-07-12 03:50:00,87.0,60.4,29.77,ESE,112,2.0,6.0,41,0.00,,,0.00,WeatherCatV1.24B11,2014-07-12 10:50:00,
2014-07-12 03:55:00,87.1,59.8,29.77,ESE,112,2.0,5.0,40,0.00,,,0.00,WeatherCatV1.24B11,2014-07-12 10:55:00,
2014-07-12 04:00:00,87.1,59.8,29.77,SE,135,2.0,5.0,40,0.00,,,0.00,WeatherCatV1.24B11,2014-07-12 11:00:00,
2014-07-12 04:05:00,87.1,59.8,29.77,ENE,68,2.0,7.0,40,0.00,,,0.00,WeatherCatV1.24B11,2014-07-12 11:05:00,
2014-07-12 04:10:00,87.1,59.8,29.77,ESE,112,1.0,3.0,40,0.00,,,0.00,WeatherCatV1.24B11,2014-07-12 11:10:00,
2014-07-12 04:15:00,87.1,59.8,29.77,East,90,2.0,7.0,40,0.00,,,0.00,WeatherCatV1.24B11,2014-07-12 11:15:00,
2014-07-12 04:20:00,87.2,59.9,29.77,East,90,2.0,5.0,40,0.00,,,0.00,WeatherCatV1.24B11,2014-07-12 11:20:00,
2014-07-12 04:25:00,87.2,59.9,29.77,East,90,1.0,4.0,40,0.00,,,0.00,WeatherCatV1.24B11,2014-07-12 11:25:00,
2014-07-12 04:30:00,87.2,59.9,29.77,ENE,68,3.0,6.0,40,0.00,,,0.00,WeatherCatV1.24B11,2014-07-12 11:30:00,
2014-07-12 04:35:00,87.3,60.0,29.77,East,90,2.0,7.0,40,0.00,,,0.00,WeatherCatV1.24B11,2014-07-12 11:35:00,
2014-07-12 04:40:00,87.3,60.0,29.77,East,90,2.0,8.0,40,0.00,,,0.00,WeatherCatV1.24B11,2014-07-12 11:40:00,
2014-07-12 04:45:00,87.2,59.9,29.77,East,90,2.0,5.0,40,0.00,,,0.00,WeatherCatV1.24B11,2014-07-12 11:45:00,
2014-07-12 04:50:00,87.2,59.9,29.77,East,90,1.0,7.0,40,0.00,,,0.00,WeatherCatV1.24B11,2014-07-12 11:50:00,
2014-07-12 04:55:00,87.3,60.0,29.77,East,90,1.0,3.0,40,0.00,,,0.00,WeatherCatV1.24B11,2014-07-12 11:55:00,
2014-07-12 05:00:00,87.4,59.4,29.77,East,90,2.0,5.0,39,0.00,,,0.00,WeatherCatV1.24B11,2014-07-12 12:00:00,
2014-07-12 05:05:00,87.4,59.4,29.77,East,90,1.0,4.0,39,0.00,,,0.00,WeatherCatV1.24B11,2014-07-12 12:05:00,
2014-07-12 05:10:00,87.4,59.4,29.78,East,90,1.0,3.0,39,0.00,,,0.00,WeatherCatV1.24B11,2014-07-12 12:10:00,
2014-07-12 05:15:00,87.4,59.4,29.78,ENE,68,1.0,4.0,39,0.00,,,0.00,WeatherCatV1.24B11,2014-07-12 12:15:00,
2014-07-12 05:20:00,87.3,60.0,29.78,East,90,1.0,3.0,40,0.00,,,0.00,WeatherCatV1.24B11,2014-07-12 12:20:00,
2014-07-12 05:25:00,87.2,59.9,29.78,East,90,1.0,3.0,40,0.00,,,0.00,WeatherCatV1.24B11,2014-07-12 12:25:00,
2014-07-12 05:30:00,87.2,59.9,29.78,ENE,68,1.0,5.0,40,0.00,,,0.00,WeatherCatV1.24B11,2014-07-12 12:30:00,
2014-07-12 05:35:00,87.1,59.8,29.78,East,90,2.0,6.0,40,0.00,,,0.00,WeatherCatV1.24B11,2014-07-12 12:35:00,
2014-07-12 05:40:00,87.1,59.8,29.78,East,90,1.0,4.0,40,0.00,,,0.00,WeatherCatV1.24B11,2014-07-12 12:40:00,
2014-07-12 05:45:00,87.0,60.4,29.78,East,90,0.0,1.0,41,0.00,,,0.00,WeatherCatV1.24B11,2014-07-12 12:45:00,
2014-07-12 05:50:00,87.0,60.4,29.79,East,90,1.0,2.0,41,0.00,,,0.00,WeatherCatV1.24B11,2014-07-12 12:50:00,
2014-07-12 05:55:00,86.9,60.3,29.79,East,90,1.0,5.0,41,0.00,,,0.00,WeatherCatV1.24B11,2014-07-12 12:55:00,
2014-07-12 06:00:00,86.8,60.9,29.79,ESE,112,1.0,2.0,42,0.00,,,0.00,WeatherCatV1.24B11,2014-07-12 13:00:00,
2014-07-12 06:05:00,86.7,60.8,29.80,ENE,68,0.0,2.0,42,0.00,,,0.00,WeatherCatV1.24B11,2014-07-12 13:05:00,
2014-07-12 06:10:00,86.7,60.8,29.80,ENE,68,1.0,2.0,42,0.00,,,0.00,WeatherCatV1.24B11,2014-07-12 13:10:00,
2014-07-12 06:15:00,86.7,60.8,29.80,ENE,68,2.0,4.0,42,0.00,,,0.00,WeatherCatV1.24B11,2014-07-12 13:15:00,
2014-07-12 06:20:00,86.6,60.7,29.80,East,90,1.0,3.0,42,0.00,,,0.00,WeatherCatV1.24B11,2014-07-12 13:20:00,
2014-07-12 06:25:00,86.6,60.7,29.80,East,90,1.0,2.0,42,0.00,,,0.00,WeatherCatV1.24B11,2014-07-12 13:25:00,
2014-07-12 06:30:00,86.7,60.8,29.80,ENE,68,1.0,2.0,42,0.00,,,0.00,WeatherCatV1.24B11,2014-07-12 13:30:00,
2014-07-12 06:35:00,86.7,60.8,29.80,SE,135,0.0,2.0,42,0.00,,,0.00,WeatherCatV1.24B11,2014-07-12 13:35:00,
2014-07-12 06:40:00,86.8,60.9,29.80,ESE,112,1.0,3.0,42,0.00,,,0.00,WeatherCatV1.24B11,2014-07-12 13:40:00,
2014-07-12 06:45:00,86.9,61.0,29.80,East,90,0.0,2.0,42,0.00,,,0.00,WeatherCatV1.24B11,2014-07-12 13:45:00,
2014-07-12 06:50:00,87.0,61.1,29.80,SW,225,1.0,3.0,42,0.00,,,0.00,WeatherCatV1.24B11,2014-07-12 13:50:00,
2014-07-12 06:55:00,87.2,61.3,29.80,East,90,1.0,3.0,42,0.00,,,0.00,WeatherCatV1.24B11,2014-07-12 13:55:00,
2014-07-12 07:00:00,87.3,61.4,29.80,East,90,1.0,3.0,42,0.00,,,0.00,WeatherCatV1.24B11,2014-07-12 14:00:00,
2014-07-12 07:05:00,87.4,61.5,29.80,ESE,112,1.0,4.0,42,0.00,,,0.00,WeatherCatV1.24B11,2014-07-12 14:05:00,
2014-07-12 07:10:00,87.6,61.6,29.80,ESE,112,1.0,2.0,42,0.00,,,0.00,WeatherCatV1.24B11,2014-07-12 14:10:00,
2014-07-12 07:15:00,88.0,62.0,29.80,SW,225,0.0,3.0,42,0.00,,,0.00,WeatherCatV1.24B11,2014-07-12 14:15:00,
2014-07-12 07:20:00,88.0,62.0,29.81,SSW,202,1.0,2.0,42,0.00,,,0.00,WeatherCatV1.24B11,2014-07-12 14:20:00,
2014-07-12 07:25:00,87.9,61.9,29.81,NNE,22,1.0,2.0,42,0.00,,,0.00,WeatherCatV1.24B11,2014-07-12 14:25:00,
2014-07-12 07:30:00,88.1,62.7,29.81,SSW,202,0.0,3.0,43,0.00,,,0.00,WeatherCatV1.24B11,2014-07-12 14:30:00,
2014-07-12 07:35:00,88.3,62.3,29.81,ESE,112,1.0,4.0,42,0.00,,,0.00,WeatherCatV1.24B11,2014-07-12 14:35:00,
2014-07-12 07:40:00,89.1,63.0,29.80,ENE,68,1.0,5.0,42,0.00,,,0.00,WeatherCatV1.24B11,2014-07-12 14:40:00,
2014-07-12 07:45:00,89.3,62.5,29.81,ENE,68,2.0,4.0,41,0.00,,,0.00,WeatherCatV1.24B11,2014-07-12 14:45:00,
2014-07-12 07:50:00,88.9,62.8,29.81,ESE,112,1.0,5.0,42,0.00,,,0.00,WeatherCatV1.24B11,2014-07-12 14:50:00,
2014-07-12 07:55:00,88.8,62.7,29.81,SSE,158,0.0,3.0,42,0.00,,,0.00,WeatherCatV1.24B11,2014-07-12 14:55:00,
2014-07-12 08:00:00,88.7,62.6,29.81,East,90,1.0,3.0,42,0.00,,,0.00,WeatherCatV1.24B11,2014-07-12 15:00:00,
2014-07-12 08:05:00,88.8,62.7,29.81,SW,225,0.0,2.0,42,0.00,,,0.00,WeatherCatV1.24B11,2014-07-12 15:05:00,
2014-07-12 08:10:00,89.0,62.9,29.81,ENE,68,1.0,4.0,42,0.00,,,0.00,WeatherCatV1.24B11,2014-07-12 15:10:00,
2014-07-12 08:15:00,89.3,63.2,29.81,East,90,1.0,2.0,42,0.00,,,0.00,WeatherCatV1.24B11,2014-07-12 15:15:00,
2014-07-12 08:20:00,89.7,62.8,29.81,ESE,112,1.0,3.0,41,0.00,,,0.00,WeatherCatV1.24B11,2014-07-12 15:20:00,
2014-07-12 08:25:00,90.1,62.5,29.81,SSW,202,1.0,2.0,40,0.00,,,0.00,WeatherCatV1.24B11,2014-07-12 15:25:00,
2014-07-12 08:30:00,90.3,62.7,29.81,South,180,1.0,2.0,40,0.00,,,0.00,WeatherCatV1.24B11,2014-07-12 15:30:00,
2014-07-12 08:35:00,90.5,62.8,29.81,SSW,202,1.0,2.0,40,0.00,,,0.00,WeatherCatV1.24B11,2014-07-12 15:35:00,
2014-07-12 08:40:00,90.5,62.8,29.81,SSW,202,1.0,2.0,40,0.00,,,0.00,WeatherCatV1.24B11,2014-07-12 15:40:00,
2014-07-12 08:45:00,90.7,62.3,29.81,SSW,202,1.0,3.0,39,0.00,,,0.00,WeatherCatV1.24B11,2014-07-12 15:45:00,
2014-07-12 08:50:00,91.0,62.6,29.81,SSW,202,1.0,2.0,39,0.00,,,0.00,WeatherCatV1.24B11,2014-07-12 15:50:00,
2014-07-12 09:01:00,93.2,62.2,29.82,East,91,1.0,2.0,36,0.00,,,0.00,WeatherCatV1.24B11,2014-07-12 16:01:00,
2014-07-12 09:06:00,94.2,62.3,29.81,East,98,2.0,3.0,35,0.00,,,0.00,WeatherCatV1.24B11,2014-07-12 16:06:00,
2014-07-12 09:11:00,94.9,62.1,29.81,SW,232,0.0,1.0,34,0.00,,,0.00,WeatherCatV1.24B11,2014-07-12 16:11:00,
2014-07-12 09:16:00,95.6,61.8,29.81,SSW,198,1.0,2.0,33,0.00,,,0.00,WeatherCatV1.24B11,2014-07-12 16:16:00,
2014-07-12 09:21:00,95.9,61.2,29.81,East,84,1.0,2.0,32,0.00,,,0.00,WeatherCatV1.24B11,2014-07-12 16:21:00,
2014-07-12 09:26:00,95.7,61.1,29.81,SW,235,1.0,1.0,32,0.00,,,0.00,WeatherCatV1.24B11,2014-07-12 16:26:00,
2014-07-12 09:31:00,96.0,60.4,29.81,South,191,1.0,3.0,31,0.00,,,0.00,WeatherCatV1.24B11,2014-07-12 16:31:00,
2014-07-12 09:36:00,96.8,60.2,29.81,SW,217,0.0,2.0,30,0.00,,,0.00,WeatherCatV1.24B11,2014-07-12 16:36:00,
2014-07-12 09:41:00,97.3,59.7,29.81,SW,226,1.0,1.0,29,0.00,,,0.00,WeatherCatV1.24B11,2014-07-12 16:41:00,
2014-07-12 09:46:00,97.7,59.0,29.81,East,96,0.0,1.0,28,0.00,,,0.00,WeatherCatV1.24B11,2014-07-12 16:46:00,
2014-07-12 09:51:00,98.0,58.3,29.81,East,94,0.0,2.0,27,0.00,,,0.00,WeatherCatV1.24B11,2014-07-12 16:51:00,
2014-07-12 09:56:00,98.3,58.5,29.81,SW,225,1.0,1.0,27,0.00,,,0.00,WeatherCatV1.24B11,2014-07-12 16:56:00,
2014-07-12 10:01:00,97.9,58.2,29.81,WNW,288,0.0,2.0,27,0.00,,,0.00,WeatherCatV1.24B11,2014-07-12 17:01:00,
2014-07-12 10:06:00,96.9,59.3,29.82,WSW,243,1.0,1.0,29,0.00,,,0.00,WeatherCatV1.24B11,2014-07-12 17:06:00,
2014-07-12 10:11:00,97.4,57.8,29.82,WNW,302,0.0,2.0,27,0.00,,,0.00,WeatherCatV1.24B11,2014-07-12 17:11:00,
2014-07-12 10:16:00,97.5,57.8,29.82,WSW,244,1.0,2.0,27,0.00,,,0.00,WeatherCatV1.24B11,2014-07-12 17:16:00,
2014-07-12 10:21:00,97.6,56.9,29.81,WNW,295,2.0,4.0,26,0.00,,,0.00,WeatherCatV1.24B11,2014-07-12 17:21:00,
2014-07-12 10:26:00,97.7,55.9,29.82,SW,235,0.0,2.0,25,0.00,,,0.00,WeatherCatV1.24B11,2014-07-12 17:26:00,
2014-07-12 10:31:00,98.8,56.8,29.82,SW,226,1.0,1.0,25,0.00,,,0.00,WeatherCatV1.24B11,2014-07-12 17:31:00,
2014-07-12 10:36:00,98.7,56.7,29.82,WSW,242,0.0,1.0,25,0.00,,,0.00,WeatherCatV1.24B11,2014-07-12 17:36:00,
2014-07-12 10:41:00,98.5,56.5,29.81,WNW,302,0.0,1.0,25,0.00,,,0.00,WeatherCatV1.24B11,2014-07-12 17:41:00,
2014-07-12 10:46:00,98.1,59.4,29.81,WSW,242,1.0,1.0,28,0.00,,,0.00,WeatherCatV1.24B11,2014-07-12 17:46:00,
2014-07-12 10:51:00,98.1,58.3,29.81,WSW,256,0.0,1.0,27,0.00,,,0.00,WeatherCatV1.24B11,2014-07-12 17:51:00,
2014-07-12 10:56:00,99.2,56.0,29.81,East,93,0.0,2.0,24,0.00,,,0.00,WeatherCatV1.24B11,2014-07-12 17:56:00,
2014-07-12 11:01:00,100.6,54.8,29.81,ENE,74,0.0,2.0,22,0.00,,,0.00,WeatherCatV1.24B11,2014-07-12 18:01:00,
2014-07-12 11:06:00,101.4,56.6,29.81,SW,229,0.0,2.0,23,0.00,,,0.00,WeatherCatV1.24B11,2014-07-12 18:06:00,
2014-07-12 11:12:00,101.9,55.8,29.81,SW,217,0.0,2.0,22,0.00,,,0.00,WeatherCatV1.24B11,2014-07-12 18:12:00,
2014-07-12 11:16:00,101.7,54.4,29.81,WSW,238,1.0,2.0,21,0.00,,,0.00,WeatherCatV1.24B11,2014-07-12 18:16:00,
2014-07-12 11:21:00,101.6,55.6,29.81,South,191,0.0,3.0,22,0.00,,,0.00,WeatherCatV1.24B11,2014-07-12 18:21:00,
2014-07-12 11:26:00,102.0,54.6,29.81,SW,224,0.0,0.0,21,0.00,,,0.00,WeatherCatV1.24B11,2014-07-12 18:26:00,
2014-07-12 11:32:00,101.8,54.5,29.80,WSW,243,1.0,3.0,21,0.00,,,0.00,WeatherCatV1.24B11,2014-07-12 18:32:00,
2014-07-12 11:37:00,101.8,54.5,29.80,SW,219,0.0,2.0,21,0.00,,,0.00,WeatherCatV1.24B11,2014-07-12 18:37:00,
2014-07-12 11:42:00,102.0,54.6,29.80,SW,218,0.0,1.0,21,0.00,,,0.00,WeatherCatV1.24B11,2014-07-12 18:42:00,
2014-07-12 11:47:00,102.1,56.0,29.80,WSW,253,1.0,1.0,22,0.00,,,0.00,WeatherCatV1.24B11,2014-07-12 18:47:00,
2014-07-12 11:52:00,101.3,55.3,29.80,WNW,284,1.0,3.0,22,0.00,,,0.00,WeatherCatV1.24B11,2014-07-12 18:52:00,
2014-07-12 11:57:00,101.9,57.1,29.79,NW,304,1.0,3.0,23,0.00,,,0.00,WeatherCatV1.24B11,2014-07-12 18:57:00,
2014-07-12 12:02:00,102.5,55.0,29.79,WNW,303,2.0,2.0,21,0.00,,,0.00,WeatherCatV1.24B11,2014-07-12 19:02:00,
2014-07-12 12:07:00,102.6,55.1,29.79,WNW,287,1.0,3.0,21,0.00,,,0.00,WeatherCatV1.24B11,2014-07-12 19:07:00,
2014-07-12 12:12:00,102.9,54.0,29.79,SW,214,3.0,3.0,20,0.00,,,0.00,WeatherCatV1.24B11,2014-07-12 19:12:00,
2014-07-12 12:17:00,103.1,54.2,29.79,NE,56,1.0,1.0,20,0.00,,,0.00,WeatherCatV1.24B11,2014-07-12 19:17:00,
2014-07-12 12:22:00,103.8,54.8,29.79,WNW,287,0.0,2.0,20,0.00,,,0.00,WeatherCatV1.24B11,2014-07-12 19:22:00,
2014-07-12 12:27:00,103.3,54.3,29.78,NW,307,0.0,1.0,20,0.00,,,0.00,WeatherCatV1.24B11,2014-07-12 19:27:00,
2014-07-12 12:32:00,103.2,54.3,29.78,WSW,255,1.0,2.0,20,0.00,,,0.00,WeatherCatV1.24B11,2014-07-12 19:32:00,
2014-07-12 12:37:00,103.4,55.8,29.78,WNW,292,1.0,2.0,21,0.00,,,0.00,WeatherCatV1.24B11,2014-07-12 19:37:00,
2014-07-12 12:42:00,103.5,55.9,29.78,SW,234,2.0,3.0,21,0.00,,,0.00,WeatherCatV1.24B11,2014-07-12 19:42:00,
2014-07-12 12:47:00,103.7,56.0,29.77,NW,311,1.0,2.0,21,0.00,,,0.00,WeatherCatV1.24B11,2014-07-12 19:47:00,
2014-07-12 12:52:00,104.2,55.1,29.77,WNW,292,1.0,2.0,20,0.00,,,0.00,WeatherCatV1.24B11,2014-07-12 19:52:00,
2014-07-12 12:57:00,104.6,56.8,29.77,WSW,245,0.0,1.0,21,0.00,,,0.00,WeatherCatV1.24B11,2014-07-12 19:57:00,
2014-07-12 13:02:00,105.5,54.7,29.77,NW,315,3.0,3.0,19,0.00,,,0.00,WeatherCatV1.24B11,2014-07-12 20:02:00,
2014-07-12 13:07:00,105.0,55.7,29.77,WNW,300,0.0,2.0,20,0.00,,,0.00,WeatherCatV1.24B11,2014-07-12 20:07:00,
2014-07-12 13:12:00,105.3,56.0,29.77,WSW,257,1.0,3.0,20,0.00,,,0.00,WeatherCatV1.24B11,2014-07-12 20:12:00,
2014-07-12 13:17:00,105.6,54.8,29.76,NW,308,2.0,3.0,19,0.00,,,0.00,WeatherCatV1.24B11,2014-07-12 20:17:00,
2014-07-12 13:22:00,105.6,53.3,29.76,NW,315,2.0,3.0,18,0.00,,,0.00,WeatherCatV1.24B11,2014-07-12 20:22:00,
2014-07-12 13:27:00,105.5,51.7,29.76,West,274,2.0,3.0,17,0.00,,,0.00,WeatherCatV1.24B11,2014-07-12 20:27:00,
2014-07-12 13:32:00,105.5,53.2,29.76,NW,309,2.0,2.0,18,0.00,,,0.00,WeatherCatV1.24B11,2014-07-12 20:32:00,
2014-07-12 13:37:00,105.6,53.3,29.76,SSW,199,1.0,3.0,18,0.00,,,0.00,WeatherCatV1.24B11,2014-07-12 20:37:00,
2014-07-12 13:42:00,105.6,51.8,29.76,WNW,298,2.0,3.0,17,0.00,,,0.00,WeatherCatV1.24B11,2014-07-12 20:42:00,
2014-07-12 13:47:00,105.5,50.0,29.75,East,79,0.0,2.0,16,0.00,,,0.00,WeatherCatV1.24B11,2014-07-12 20:47:00,
2014-07-12 13:52:00,106.4,50.8,29.75,SSE,150,2.0,3.0,16,0.00,,,0.00,WeatherCatV1.24B11,2014-07-12 20:52:00,
2014-07-12 13:57:00,107.0,49.5,29.75,WSW,248,1.0,2.0,15,0.00,,,0.00,WeatherCatV1.24B11,2014-07-12 20:57:00,
2014-07-12 14:02:00,108.1,52.1,29.75,WNW,300,1.0,1.0,16,0.00,,,0.00,WeatherCatV1.24B11,2014-07-12 21:02:00,
2014-07-12 14:07:00,107.7,50.0,29.74,WNW,297,2.0,4.0,15,0.00,,,0.00,WeatherCatV1.24B11,2014-07-12 21:07:00,
2014-07-12 14:12:00,107.6,50.0,29.74,WNW,285,2.0,3.0,15,0.00,,,0.00,WeatherCatV1.24B11,2014-07-12 21:12:00,
2014-07-12 14:17:00,107.2,51.4,29.74,NW,319,1.0,4.0,16,0.00,,,0.00,WeatherCatV1.24B11,2014-07-12 21:17:00,
2014-07-12 14:22:00,107.0,49.5,29.74,NW,309,0.0,2.0,15,0.00,,,0.00,WeatherCatV1.24B11,2014-07-12 21:22:00,
2014-07-12 14:27:00,107.3,51.5,29.73,WNW,290,1.0,3.0,16,0.00,,,0.00,WeatherCatV1.24B11,2014-07-12 21:27:00,
2014-07-12 14:32:00,107.1,51.3,29.73,SW,218,1.0,3.0,16,0.00,,,0.00,WeatherCatV1.24B11,2014-07-12 21:32:00,
2014-07-12 14:37:00,106.9,51.2,29.73,West,270,1.0,3.0,16,0.00,,,0.00,WeatherCatV1.24B11,2014-07-12 21:37:00,
2014-07-12 14:42:00,107.5,51.6,29.72,WNW,298,1.0,2.0,16,0.00,,,0.00,WeatherCatV1.24B11,2014-07-12 21:42:00,
2014-07-12 14:47:00,107.6,51.7,29.72,WNW,297,1.0,3.0,16,0.00,,,0.00,WeatherCatV1.24B11,2014-07-12 21:47:00,
2014-07-12 14:52:00,107.5,51.6,29.72,NW,305,2.0,3.0,16,0.00,,,0.00,WeatherCatV1.24B11,2014-07-12 21:52:00,
2014-07-12 14:57:00,107.4,51.5,29.72,NW,307,2.0,2.0,16,0.00,,,0.00,WeatherCatV1.24B11,2014-07-12 21:57:00,
2014-07-12 15:02:00,107.6,51.7,29.72,WNW,291,1.0,3.0,16,0.00,,,0.00,WeatherCatV1.24B11,2014-07-12 22:02:00,
2014-07-12 15:07:00,107.9,52.0,29.71,NW,321,1.0,2.0,16,0.00,,,0.00,WeatherCatV1.24B11,2014-07-12 22:07:00,
2014-07-12 15:12:00,108.2,50.4,29.71,SW,223,0.0,1.0,15,0.00,,,0.00,WeatherCatV1.24B11,2014-07-12 22:12:00,
2014-07-12 15:17:00,108.2,50.4,29.71,SW,225,0.0,1.0,15,0.00,,,0.00,WeatherCatV1.24B11,2014-07-12 22:17:00,
2014-07-12 15:22:00,107.6,51.7,29.71,NW,304,1.0,2.0,16,0.00,,,0.00,WeatherCatV1.24B11,2014-07-12 22:22:00,
2014-07-12 15:27:00,108.0,52.0,29.71,West,278,3.0,3.0,16,0.00,,,0.00,WeatherCatV1.24B11,2014-07-12 22:27:00,
2014-07-12 15:32:00,108.2,52.2,29.70,NW,305,2.0,7.0,16,0.00,,,0.00,WeatherCatV1.24B11,2014-07-12 22:32:00,
2014-07-12 15:37:00,108.4,52.3,29.70,WSW,243,0.0,2.0,16,0.00,,,0.00,WeatherCatV1.24B11,2014-07-12 22:37:00,
2014-07-12 15:42:00,108.6,48.9,29.70,SSW,212,1.0,3.0,14,0.00,,,0.00,WeatherCatV1.24B11,2014-07-12 22:42:00,
2014-07-12 15:47:00,107.8,51.9,29.70,WNW,297,0.0,1.0,16,0.00,,,0.00,WeatherCatV1.24B11,2014-07-12 22:47:00,
2014-07-12 15:52:00,106.9,51.2,29.70,NW,304,0.0,3.0,16,0.00,,,0.00,WeatherCatV1.24B11,2014-07-12 22:52:00,
2014-07-12 15:57:00,106.4,52.4,29.70,NW,307,1.0,2.0,17,0.00,,,0.00,WeatherCatV1.24B11,2014-07-12 22:57:00,
2014-07-12 16:02:00,106.0,52.1,29.69,West,274,0.0,1.0,17,0.00,,,0.00,WeatherCatV1.24B11,2014-07-12 23:02:00,
2014-07-12 16:07:00,106.9,52.8,29.69,SW,217,1.0,1.0,17,0.00,,,0.00,WeatherCatV1.24B11,2014-07-12 23:07:00,
2014-07-12 16:12:00,107.7,51.8,29.69,SW,218,0.0,1.0,16,0.00,,,0.00,WeatherCatV1.24B11,2014-07-12 23:12:00,
2014-07-12 16:17:00,108.8,52.7,29.69,WSW,243,0.0,2.0,16,0.00,,,0.00,WeatherCatV1.24B11,2014-07-12 23:17:00,
2014-07-12 16:22:00,108.7,52.6,29.69,NW,304,0.0,2.0,16,0.00,,,0.00,WeatherCatV1.24B11,2014-07-12 23:22:00,
2014-07-12 16:27:00,107.0,52.9,29.69,SW,222,1.0,1.0,17,0.00,,,0.00,WeatherCatV1.24B11,2014-07-12 23:27:00,
2014-07-12 16:32:00,106.2,52.2,29.69,SW,233,1.0,2.0,17,0.00,,,0.00,WeatherCatV1.24B11,2014-07-12 23:32:00,
2014-07-12 16:37:00,106.2,50.6,29.70,SSW,203,1.0,2.0,16,0.00,,,0.00,WeatherCatV1.24B11,2014-07-12 23:37:00,
2014-07-12 16:42:00,106.3,50.7,29.70,SW,217,1.0,2.0,16,0.00,,,0.00,WeatherCatV1.24B11,2014-07-12 23:42:00,
2014-07-12 16:47:00,105.5,50.0,29.70,WSW,248,1.0,1.0,16,0.00,,,0.00,WeatherCatV1.24B11,2014-07-12 23:47:00,
2014-07-12 16:52:00,105.3,49.9,29.70,SW,231,0.0,1.0,16,0.00,,,0.00,WeatherCatV1.24B11,2014-07-12 23:52:00,
2014-07-12 16:57:00,105.2,53.0,29.70,SW,225,0.0,1.0,18,0.00,,,0.00,WeatherCatV1.24B11,2014-07-12 23:57:00,
2014-07-12 17:02:00,104.5,52.4,29.70,WSW,256,0.0,1.0,18,0.00,,,0.00,WeatherCatV1.24B11,2014-07-13 00:02:00,
2014-07-12 17:07:00,103.9,52.0,29.70,WSW,255,0.0,0.0,18,0.00,,,0.00,WeatherCatV1.24B11,2014-07-13 00:07:00,
2014-07-12 17:12:00,103.6,51.7,29.70,WSW,254,0.0,1.0,18,0.00,,,0.00,WeatherCatV1.24B11,2014-07-13 00:12:00,
2014-07-12 17:17:00,103.2,49.9,29.70,WSW,255,0.0,0.0,17,0.00,,,0.00,WeatherCatV1.24B11,2014-07-13 00:17:00,
2014-07-12 17:22:00,102.9,52.6,29.69,WSW,255,0.0,0.0,19,0.00,,,0.00,WeatherCatV1.24B11,2014-07-13 00:22:00,
2014-07-12 17:27:00,102.9,51.2,29.69,WSW,254,0.0,1.0,18,0.00,,,0.00,WeatherCatV1.24B11,2014-07-13 00:27:00,
2014-07-12 17:32:00,102.9,52.6,29.69,WSW,254,0.0,0.0,19,0.00,,,0.00,WeatherCatV1.24B11,2014-07-13 00:32:00,
2014-07-12 17:37:00,103.3,51.5,29.68,SW,222,0.0,0.0,18,0.00,,,0.00,WeatherCatV1.24B11,2014-07-13 00:37:00,
2014-07-12 17:42:00,103.7,53.3,29.69,ENE,65,0.0,1.0,19,0.00,,,0.00,WeatherCatV1.24B11,2014-07-13 00:42:00,
2014-07-12 17:47:00,103.9,52.0,29.69,SE,131,0.0,1.0,18,0.00,,,0.00,WeatherCatV1.24B11,2014-07-13 00:47:00,
2014-07-12 17:52:00,103.7,53.3,29.68,SSW,204,0.0,0.0,19,0.00,,,0.00,WeatherCatV1.24B11,2014-07-13 00:52:00,
2014-07-12 17:57:00,103.4,53.0,29.68,SSW,205,0.0,0.0,19,0.00,,,0.00,WeatherCatV1.24B11,2014-07-13 00:57:00,
2014-07-12 18:02:00,103.2,54.3,29.68,SSW,204,0.0,0.0,20,0.00,,,0.00,WeatherCatV1.24B11,2014-07-13 01:02:00,
2014-07-12 18:07:00,102.7,52.5,29.68,West,260,0.0,1.0,19,0.00,,,0.00,WeatherCatV1.24B11,2014-07-13 01:07:00,
2014-07-12 18:12:00,102.5,52.3,29.68,West,260,0.0,0.0,19,0.00,,,0.00,WeatherCatV1.24B11,2014-07-13 01:12:00,